Regional Weather Roundup
Issued by NWS

Home | Current Version | Previous Version | Graphics & Text | Print | Product List | Glossary On
Versions: 1 2 3 4 5 6 7 8 9 10 11 12 13 14 15 16 17 18 19 20 21 22 23 24 25 26 27 28 29 30 31 32 33 34 35 36 37 38 39 40 41 42 43 44 45 46 47 48 49 50
169
ASUS43 KDTX 170710
RWRMI
MICHIGAN HOURLY REGIONAL WEATHER ROUNDUP
NATIONAL WEATHER SERVICE DETROIT/PONTIAC MI
ISSUED BY NATIONAL WEATHER SERVICE GRAND RAPIDS MI
200 AM EST TUE JAN 17 2017

NOTE: "FAIR" INDICATES FEW OR NO CLOUDS BELOW 12,000 FEET WITH NO
SIGNIFICANT WEATHER AND/OR OBSTRUCTION TO VISIBILITY.

MIZ047>049-052>055-059>063-066>070-074>076-081>083-170800-
SOUTHEAST LOWER MICHIGAN

CITY           SKY/WX    TMP DP  RH WIND       PRES   REMARKS
ADRIAN         MIX PCPN  32  32 100 E8        29.99F FOG     WCI  25
ALMA           LGT SNOW  33  32  97 E13       29.99F WCI  24
ANN ARBOR      FRZ RAIN  32  32 100 NE9       30.00F FOG     WCI  24
BAD AXE        MIX PCPN  32  31  95 E5        30.07F WCI  27
DETROIT CITY   FRZ RAIN  32  30  93 E5          N/A  WCI  27
DETROIT        RAIN      33  31  92 E8        30.04F FOG     WCI  26
FLINT          LGT RAIN  33  31  92 E12       30.00F WCI  24
GROSSE ILE     MIX PCPN  33  32  98 E8        30.01F WCI  25
HILLSDALE      RAIN      32  32 100 E13       29.93F WCI  22
HOWELL         DRIZZLE   32  32  97 E10       29.97F WCI  24

CITY           SKY/WX    TMP DP  RH WIND       PRES   REMARKS
JACKSON        RAIN      33  32  96 SE14      29.95F FOG     WCI  23
LANSING        LGT RAIN  34  31  88 E8        29.96F FOG     WCI  27
MASON          LGT RAIN  33  33  99 E9        29.95F WCI  25
MONROE         MIX PCPN  34  34  99 E7        30.01F WCI  28
MT. CLEMENS    LGT RAIN  32  32  99 E5        30.04F WCI  28
PONTIAC        FRZ RAIN  31  28  89 E9        30.01F FOG     WCI  23
PORT HOPE        N/A     33  31  92 SE9       30.08F WCI  25
PORT HURON     MIX PCPN  32  30  93 E7        30.08F WCI  26
TRI CITIES     FRZ RAIN  33  32  96 E12       30.02F FOG     WCI  24
YPSILANTI      LGT RAIN  34  33  96 E9        30.02F FOG     WCI  27
$$
MIZ043>046-050>051-056>058-064>065-071>073-077>080-170800-
SOUTHWEST LOWER MICHIGAN

CITY           SKY/WX    TMP DP  RH WIND       PRES   REMARKS
BATTLE CREEK   LGT RAIN  37  36  96 E8        29.91F WCI  31
BENTON HARBOR  LGT RAIN  42  40  92 SE12      29.84F FOG
BIG RAPIDS     LGT SNOW  33  32  97 E7        29.95F WCI  26
COLDWATER      MIX PCPN  37  37 100 SE12      29.90F WCI  29
HOLLAND        CLOUDY    35  34  96 E8        29.88F WCI  29
GRAND RAPIDS   LGT RAIN  34  33  96 E14       29.91F FOG     WCI  25
KALAMAZOO      LGT RAIN  38  35  89 SE9       29.89F FOG     WCI  31
MARSHALL       LGT RAIN  36  35  98 E8        29.92F WCI  29
MOUNT PLEASANT MIX PCPN  32  32  99 E9        29.99F WCI  25
MUSKEGON       RAIN      35  34  96 E12       29.89F FOG     WCI  27
STURGIS        RAIN      38  38  99 SE8       29.89F WCI  32
$$
MIZ016>042-170800-
NORTHERN LOWER MICHIGAN

CITY           SKY/WX    TMP DP  RH WIND       PRES   REMARKS
ALPENA         CLOUDY    22  17  81 CALM      30.08F
BEAVER ISLAND  PTCLDY    28  27  93 E5        30.03F WCI  23
BELLAIRE       LGT SNOW  29  27  94 CALM      30.03S
CADILLAC       FLURRIES  32  32  98 E9        29.95F WCI  25
CHARLEVOIX     CLOUDY    30  23  74 E5        30.06F WCI  25
GAYLORD        CLOUDY    31  21  66 SE6       30.01F WCI  25
HOUGHTON LAKE  FRZ RAIN  32  31  96 E9        30.01F WCI  24
MANISTEE       LGT RAIN  34  33  96 E14       29.91F WCI  25
OSCODA         LGT SNOW  33  32  95 S3        30.09F
PELLSTON       PTCLDY    19  15  84 CALM      30.06F
TRAVERSE CITY  LGT RAIN  34  32  92 E5        29.99F WCI  30
LUDINGTON      CLOUDY    35  35 100 E14       29.89F WCI  25
$$
MIZ007>008-015-170800-
EASTERN UPPER MICHIGAN

CITY           SKY/WX    TMP DP  RH WIND       PRES   REMARKS
KINROSS        CLOUDY    25  24  96 E8        30.07F WCI  16
MACKINAC ISLAN MOCLDY    32  32 100 E8        30.05F WCI  25
NEWBERRY       CLOUDY    21  20  97 CALM      30.04F FOG
S. S. MARIE    CLOUDY    24  21  88 NE5       30.07F WCI  18
$$
MIZ004>006-011>014-085-170800-
CENTRAL UPPER MICHIGAN

CITY           SKY/WX    TMP DP  RH WIND       PRES   REMARKS
MANISTIQUE     PTCLDY    21  20  97 CALM      30.03S FOG
SAWYER-GWINN   CLOUDY    20  18  93 CALM      30.00S
$$
MIZ001>003-009>011-084-170800-
WESTERN UPPER MICHIGAN

CITY           SKY/WX    TMP DP  RH WIND       PRES   REMARKS
IRON MOUNTAIN  CLOUDY    22  17  81 N3        29.97F
HOUGHTON       CLOUDY    30  26  85 E7        29.99F WCI  23
COPPER HARBOR    N/A     27  25  92 CALM      30.02F
IRONWOOD       CLOUDY    23  19  85 CALM      29.99F
$$

ABBREVIATIONS USED IN REMARKS
   TC - TEMPERATURE IN CELSIUS
  WCI - WIND CHILL INDEX
   HX - HEAT INDEX
  VSB - VISIBILITY





USA.gov is the U.S. government's official web portal to all federal, state and local government web resources and services.